Location: Molveno
(46.1500°N, 10.9667°E)
Time: 17:14:01
(UTC+00:00)

Cosmos 1703 - Pass Details

Date: 05 July 2020
Orbit: 525 x 539 km, 82.5° (Epoch: 10 August)

Event Time Altitude Azimuth Distance (km) Brightness Sun altitude
Exits shadow 20:16:00 - 183° (S) 2,253 6.0 -9.4°
Reaches altitude 10° 20:17:11 10° 182° (S) 1,762 5.5 -9.6°
Maximum altitude 20:21:03 76° 97° (E) 547 3.2 -10.0°
Drops below altitude 10° 20:24:56 10° 12° (NNE) 1,778 6.5 -10.5°
Sets 20:27:06 0° 11° (N) 2,673 7.4 -10.7°
